BEIDOU-3 M15 (43647 NORAD) Tracking and Keplerian Element Data

This shows tracking and keplerian element data for the satellite.

Feedback or suggestion? Click here.




ElementValue
Catalog43647
NameBEIDOU-3 M15
Epoch Orbit52
Epoch Day317.01550391
Epoch Year2018
RAAN35.6772
Inclination55.0057
Eccentricity0.0006416
Argument of Perigee316.1729
Mean Anonmoly276.9015
Mean Motion1.86232309
Decay Rate-9.8E-07
L11 43647U 18078A 18317.01550391 -.00000098 00000-0 10000-3 0 9994
L22 43647 55.0057 35.6772 0006416 316.1729 276.9015 1.86232309 525

Live tracking and technical data element details for BEIDOU-3 M15 (NORAD 43647). BEIDOU-3 M15 can be tracked NOW for your location showing map with azimuth and elevation plus other details from your city location.

Track the satellite on the map from your city or location and see movement details for azimuth, elevation, latitude, longitude, range, height, and movement on the map or in text.







IsCatalogInMostPopularTable: catalog: 43647, numindb: 16
Update: records affected: 1



GetName: 43647 BEIDOU-3 M15

Hit Count: updated at: Tue, 20 Nov 2018 11:47:12 GMT